| time (UTC) | temp F | wind direction | speed knots | gust knots | rain 1hr in | rain 24hr in | rain mn in | humidity % | barometer mb |
| 20260504041600 | 56 | 197 | 2.6 | 7.0 | 0.00 | 0.11 | 0.11 | 69 | 1004.5 |
| 20260504040117 | 56 | 225 | 2.6 | 6.1 | 0.00 | 0.11 | 0.11 | 69 | 1004.5 |
| 20260504034610 | 56 | 231 | 0.9 | 5.2 | 0.00 | 0.11 | 0.11 | 68 | 1004.7 |
| 20260504033058 | 56 | 191 | 1.7 | 6.1 | 0.00 | 0.11 | 0.11 | 67 | 1004.9 |
| 20260504031558 | 57 | 229 | 1.7 | 4.3 | 0.00 | 0.11 | 0.11 | 66 | 1005.0 |
| 20260504030057 | 57 | 189 | 0.0 | 3.5 | 0.00 | 0.11 | 0.11 | 64 | 1005.1 |
| 20260504024600 | 58 | 243 | 1.7 | 4.3 | 0.00 | 0.11 | 0.11 | 63 | 1005.0 |
| 20260504023056 | 59 | 191 | 1.7 | 5.2 | 0.00 | 0.11 | 0.11 | 61 | 1005.0 |
| 20260504021555 | 60 | 205 | 1.7 | 6.1 | 0.00 | 0.11 | 0.11 | 59 | 1004.9 |
| 20260504020055 | 61 | 200 | 1.7 | 6.1 | 0.00 | 0.11 | 0.11 | 58 | 1004.8 |
| 20260504014554 | 61 | 221 | 2.6 | 7.8 | 0.00 | 0.11 | 0.11 | 56 | 1004.6 |
| 20260504013106 | 62 | 219 | 2.6 | 7.8 | 0.00 | 0.11 | 0.11 | 55 | 1004.5 |
| 20260504011553 | 62 | 236 | 2.6 | 7.8 | 0.00 | 0.11 | 0.11 | 54 | 1004.5 |
| 20260504010101 | 63 | 226 | 1.7 | 7.8 | 0.00 | 0.11 | 0.11 | 52 | 1004.4 |
| 20260504004605 | 65 | 235 | 2.6 | 7.8 | 0.00 | 0.11 | 0.11 | 50 | 1004.3 |
| 20260504003049 | 66 | 222 | 4.3 | 10.4 | 0.00 | 0.11 | 0.11 | 48 | 1004.4 |
| 20260504001549 | 67 | 253 | 4.3 | 10.4 | 0.00 | 0.11 | 0.11 | 46 | 1004.5 |
| 20260504000048 | 67 | 219 | 3.5 | 12.2 | 0.00 | 0.11 | 0.11 | 45 | 1004.5 |
| 20260503234548 | 68 | 231 | 2.6 | 15.6 | 0.00 | 0.11 | 0.11 | 44 | 1004.6 |
| 20260503233048 | 68 | 227 | 4.3 | 12.2 | 0.00 | 0.11 | 0.11 | 43 | 1004.6 |
| 20260503231548 | 69 | 220 | 5.2 | 13.9 | 0.00 | 0.11 | 0.11 | 42 | 1004.6 |
| 20260503230053 | 69 | 175 | 4.3 | 14.8 | 0.00 | 0.11 | 0.11 | 42 | 1004.6 |
| 20260503224543 | 69 | 235 | 6.1 | 13.9 | 0.00 | 0.11 | 0.11 | 41 | 1004.8 |
| 20260503223042 | 68 | 179 | 6.1 | 13.9 | 0.00 | 0.11 | 0.11 | 41 | 1005.0 |
| 20260503221540 | 69 | 269 | 7.0 | 18.2 | 0.00 | 0.11 | 0.11 | 40 | 1005.2 |
| 20260503220039 | 68 | 222 | 3.5 | 13.9 | 0.00 | 0.11 | 0.11 | 41 | 1005.1 |
| 20260503214536 | 68 | 263 | 4.3 | 13.9 | 0.00 | 0.11 | 0.11 | 41 | 1005.2 |
| 20260503213033 | 67 | 180 | 5.2 | 12.2 | 0.00 | 0.11 | 0.11 | 42 | 1005.5 |
| 20260503211531 | 67 | 165 | 4.3 | 15.6 | 0.00 | 0.11 | 0.11 | 43 | 1005.8 |
| 20260503210028 | 65 | 286 | 5.2 | 13.9 | 0.00 | 0.11 | 0.11 | 44 | 1006.1 |
| 20260503204524 | 64 | 257 | 8.7 | 16.5 | 0.00 | 0.11 | 0.11 | 43 | 1006.5 |
| 20260503203023 | 64 | 234 | 7.8 | 16.5 | 0.00 | 0.11 | 0.11 | 42 | 1006.9 |
| 20260503201519 | 66 | 252 | 10.4 | 18.2 | 0.00 | 0.11 | 0.11 | 39 | 1006.9 |
| 20260503200016 | 65 | 230 | 6.1 | 18.2 | 0.00 | 0.11 | 0.11 | 41 | 1007.1 |
| 20260503194514 | 64 | 179 | 11.3 | 21.7 | 0.00 | 0.11 | 0.11 | 40 | 1007.3 |
| 20260503193013 | 64 | 231 | 9.6 | 19.1 | 0.00 | 0.11 | 0.11 | 45 | 1007.5 |
| 20260503191525 | 62 | 224 | 7.0 | 23.5 | 0.00 | 0.11 | 0.11 | 48 | 1007.8 |
| 20260503190006 | 61 | 198 | 7.0 | 20.0 | 0.00 | 0.11 | 0.11 | 53 | 1008.0 |
| 20260503184605 | 59 | 164 | 7.0 | 16.5 | 0.00 | 0.11 | 0.11 | 60 | 1008.2 |
| 20260503183056 | 57 | 146 | 7.0 | 14.8 | 0.00 | 0.11 | 0.11 | 64 | 1008.6 |
| 20260503181551 | 55 | 136 | 7.0 | 13.0 | 0.01 | 0.11 | 0.11 | 68 | 1008.9 |
| 20260503180100 | 53 | 263 | 5.2 | 9.6 | 0.01 | 0.11 | 0.11 | 76 | 1009.4 |
| 20260503174546 | 50 | 214 | 2.6 | 9.6 | 0.02 | 0.11 | 0.11 | 83 | 1009.8 |
| 20260503173049 | 48 | 225 | 3.5 | 8.7 | 0.02 | 0.11 | 0.11 | 83 | 1010.2 |
| 20260503171537 | 48 | 163 | 3.5 | 9.6 | 0.02 | 0.10 | 0.10 | 83 | 1011.2 |
| 20260503081531 | 42 | 240 | 0.9 | 3.5 | 0.00 | 0.01 | 0.00 | 66 | 1014.1 |
| 20260503071527 | 43 | 217 | 0.9 | 4.3 | 0.00 | 0.01 | 0.00 | 65 | 1014.2 |
| 20260503054513 | 44 | 238 | 0.9 | 5.2 | 0.00 | 0.01 | 0.00 | 59 | 1015.0 |
| 20260503053011 | 44 | 182 | 0.9 | 3.5 | 0.00 | 0.01 | 0.00 | 58 | 1015.1 |
| 20260503051511 | 45 | 217 | 0.9 | 3.5 | 0.00 | 0.01 | 0.00 | 57 | 1015.2 |
| 20260503050008 | 45 | 199 | 0.9 | 3.5 | 0.00 | 0.01 | 0.00 | 57 | 1015.3 |
| 20260503044506 | 45 | 200 | 1.7 | 5.2 | 0.00 | 0.01 | 0.01 | 56 | 1015.3 |
| 20260503043020 | 45 | 175 | 1.7 | 4.3 | 0.00 | 0.01 | 0.01 | 56 | 1015.3 |